STARLINK-1398, 45699

Orbit data source: Space-Track

STARLINK-1398, 45699 is a payload satellite owned by SpaceX/Seattle (US) in LEO that was launched on Thu, 04 Jun 2020 UTC via an FALCON 9 launch vehicle from the Air Force Eastern Test Range (AFETR). Payloads include a variety of satellites, spacecraft, and rockets equipped with specific instruments for various scientific and technological missions. These include communications satellites like Starlink; space stations such as the ISS; scientific satellites like the Hubble; Earth observation satellites from companies like Planet Labs, Umbra, and HawkEye 360; GPS; miniature CubeSats for education and research; and military/defense satellites.

Loading next visibility...
STARLINK-1398 details
Identifier
45699, 2020-035AU
Orbit
LEO
Last TLE update14 hours ago
Origin
Flag of USSpaceX/Seattle (US)
ManufacturerSpaceX/Seattle
MissionOperational Commercial Communications
Bus & MotorSTARLINK, Unknown motor
Mass260 kg wet, ~248 kg dry
Launch date (UTC)
2020-06-04 (5 years ago)
Launch vehicle
FALCON 9
Launch site
Air Force Eastern Test Range (AFETR)
Object type
Payload
Rocket body
Debris
Shape & HBRBox + 1 Pan, 8.86 m
Radar Cross Section13.562 m², Large (>1 m²)

Expand to show TLE details & history

TLE from 14 hours ago
0 STARLINK-1398
1 45699U 20035AU  24360.89664204  .00007851  00000-0  54518-3 0  9994
2 45699  53.0538 206.4374 0001474  93.1450 266.9708 15.06414335252653
Epoch: 2024-12-25T21:31Z
Definitive object data (Epoch: 2024-12-25T21:31:09.872Z)
Latitude0.00002°
Longitude148.76247°
Altitude548.101 km
Speed7.589 km/s
True Right ascension13h 45m 44s
True Declination0° 00' 00"
Sunlit
Object was in daylight at TLE epoch
Visualization TLE readout
Latitude-52.84431°
Longitude46.91223°
Altitude566.507 km
Speed7.577 km/s
Apparent Right ascension02h 20m 40s
Apparent Declination-65° 21' 23"
Sunlit
Object is in daylight
Visualization observer readout
Local Sidereal Time10:46:57
Azimuth211.914° SW
Elevation-50.692°
Doppler factor1
Orbital elements
Apogee altitude548.459 km
Perigee altitude546.418 km
Semi-major axis6,925.575 km
Eccentricity0.0001474
Inclination53.0538°
RAAN206.4374°
Arg. of periapsis93.145°
True anomaly266.95393°
Mean anomaly266.9708°
Eccentric anomaly266.96237°
Mean motion3.76582 °/min
BSTAR0.00054518
Orbital period95.6 mins
Loading maneuver chart data...

STARLINK-1398 Visibility forecast

Observer location: undefined°, undefined

Span
Click to sort rows by Start time (UTC) header in descending order
Start Az.
Max El. time (UTC)
Max El. Az.
Max El.
End time (UTC)
End Az.
6 mins2024-12-26 16:49:36.218Z236.163° WSW2024-12-26 16:51:36.218Z259.992° W42.842°2024-12-26 16:55:36.218Z47.654° ENE
4 mins2024-12-26 18:30:36.218Z311.568° NW2024-12-26 18:31:36.218Z329.876° NNW18.351°2024-12-26 18:34:36.218Z22.325° NNE
5 mins2024-12-26 21:51:36.218Z343.372° N2024-12-26 21:53:36.218Z21.368° NNE20.847°2024-12-26 21:56:36.218Z72.764° E
7 mins2024-12-26 23:30:36.218Z306.992° NW2024-12-26 23:33:36.218Z216.66° SW44.61°2024-12-26 23:37:36.218Z134.882° SE
|